Location: Ailly
(50.0793°N, 1.9944°E)
Time: 07:41:41
(UTC+00:00)

Cosmos 1862 Rocket - Pass Details

Date: 15 January 2026
Orbit: 596 x 627 km, 82.5° (Epoch: 14 February)

Event Time Altitude Azimuth Distance (km) Brightness Sun altitude
Rises 06:51:19 0° 342° (NNW) 2,887 6.6 -8.4°
Reaches altitude 10° 06:53:42 10° 334° (NNW) 1,971 5.7 -8.1°
Maximum altitude 06:57:37 34° 269° (W) 1,009 4.2 -7.5°
Drops below altitude 10° 07:01:30 10° 205° (SSW) 1,941 6.1 -6.9°
Sets 07:03:50 0° 196° (SSW) 2,835 7.1 -6.6°
